Tiempo atmosférico en la estación meteorológica de Becerreá, Lugo (1080 m.)

Fecha
DESCASC
Temp. máxima en grados centígrados (hora)
DESCASC
Temp. mínima en grados centígrados (hora)
DESCASC
Temp. media en grados centígrados
DESCASC
Racha de viento máxima en m/sg (hora)
DESCASC
Velocidad máxima media en intervalos de 10 minutos(hora)
DESCASC
Precipitaciones diarias en mm
DESCASC
Precipitaciones de 00:00 a 06:00 en mm
DESCASC
Precipitaciones de 06:00 a 12:00 en mm
DESCASC
Precipitaciones de 12:00 a 18:00 en mm
DESCASC
Precipitaciones de 18:00 a 24:00 en mm
DESCASC
14-12-2017 8.6 (00:40) 3.2 (21:50) 5.9 16.11 (03:00) 6.11 (03:10) -- -- -- -- --
13-12-2017 8.3 (23:40) 2.5 (00:00) 5.4 16.67 (17:50) 5.28 (18:40) -- -- -- -- --
12-12-2017 2.5 (23:59) -0.7 (00:00) 0.9 7.5 (00:40) 4.72 (00:40) -- -- -- -- --
11-12-2017 2.8 (01:00) -0.8 (17:20) 1 12.78 (02:40) 6.39 (02:50) -- -- -- -- --
10-12-2017 9.2 (11:20) 1.7 (00:00) 5.4 23.61 (17:40) 8.61 (15:00) -- -- -- -- --
09-12-2017 8.3 (14:20) 4.6 (00:00) 6.5 15 (18:40) 5 (19:50) -- -- -- -- --
08-12-2017 8 (13:20) 5.2 (00:00) 6.6 7.78 (01:10) 3.61 (05:10) -- -- -- -- --
07-12-2017 7.8 (15:20) 5.1 (00:00) 6.5 11.39 (16:20) 4.17 (17:00) 17 0 0.2 8.4 8.4
06-12-2017 9 (13:10) 2.5 (00:00) 5.8 7.78 (18:00) 5 (18:00) 0 0 0 0 0
05-12-2017 8.1 (13:10) 1.7 (00:00) 4.9 6.11 (00:50) 3.89 (01:10) 0 0 0 0 0
04-12-2017 7.4 (14:30) -1 (-00:0) 3.2 6.39 (10:20) 3.33 (09:10) 0 0 0 0 0
03-12-2017 3.3 (14:00) -0.9 (-00:0) 1.2 8.33 (04:30) 3.89 (04:30) 0.2 0 0.2 0 0
02-12-2017 1.4 (15:20) -1.8 (-00:0) -0.2 10 (14:00) 3.89 (21:20) 0.6 0 0.4 0.2 0
01-12-2017 2 (11:50) -1.8 (-00:0) 0.1 12.22 (10:30) 6.11 (08:20) 3.2 0.4 2.2 0.6 0
30-11-2017 1.8 (15:50) -2.1 (-00:0) -0.1 7.78 (22:10) 3.61 (23:10) 1.4 0 0.6 0.6 0.2
29-11-2017 2.6 (00:00) -1.3 (-00:0) 0.6 8.61 (18:10) 3.33 (20:30) 2.6 0.2 0.2 2.2 0
28-11-2017 6.9 (14:20) 2.4 (00:00) 4.7 6.11 (16:10) 3.61 (16:10) 0 0 0 0 0
27-11-2017 9.3 (14:00) 1.7 (00:00) 5.5 6.11 (19:30) 4.44 (19:30) 0 0 0 0 0
26-11-2017 7 (13:50) -0.7 (-00:0) 3.2 7.22 (10:40) 4.17 (15:10) 0.2 0 0.2 0 0
25-11-2017 6.7 (00:00) 0 (00:00) 3.3 9.17 (13:00) 3.61 (10:30) 2.6 2.4 0.2 0 0
24-11-2017 9.3 (00:10) 6.7 (00:00) 8 9.17 (00:20) 5 (00:10) 27.4 2 2.2 8.2 15
23-11-2017 13.3 (14:20) 8.3 (00:00) 10.8 17.22 (00:10) 8.33 (02:50) 2.6 1.2 0 0 1.4
22-11-2017 13.6 (14:40) 8.1 (00:00) 10.9 21.94 (16:50) 7.78 (18:20) 8 0 0 0 8
21-11-2017 15.3 (14:30) 9.2 (00:00) 12.3 8.33 (23:20) 4.72 (23:59) 0 0 0 0 0
20-11-2017 16.5 (14:20) 7.8 (00:00) 12.2 6.67 (18:20) 4.17 (18:10) 0 0 0 0 0
19-11-2017 16.3 (13:30) 7.2 (00:00) 11.7 4.17 (16:40) 2.78 (16:20) 0 0 0 0 0
18-11-2017 16 (13:30) 7.4 (00:00) 11.7 6.94 (03:30) 4.72 (03:20) 0 0 0 0 0
17-11-2017 16.2 (12:30) 6.2 (00:00) 11.2 4.44 (20:20) 2.22 (23:59) 0 0 0 0 0

Gráficas

Temp. máximas Temp. mínimas Temp. medias Precipitaciones Rachas de viento máximas Velocidades máximas media en intervalos de 10 minutos

Datos horarios

Fecha y hora oficial Temperatura (ºC) Velocidad del viento (km/h) Dirección del viento Racha (km/h) Dirección de racha Precipitación (mm) Presión (hPa) Tendencia (hPa) Humedad (%)
2017-12-16 23:00:00 -0.5 5 Este 14 Este 0 -- -- 100
2017-12-16 22:00:00 0 5 Este 18 Nordeste 0 -- -- 100
2017-12-16 21:00:00 -0.3 6 Este 18 Nordeste 0 -- -- 100
2017-12-16 20:00:00 -0.3 8 Nordeste 19 Nordeste 0 -- -- 100
2017-12-16 19:00:00 0 8 Nordeste 22 Nordeste 0 -- -- 100
2017-12-16 18:00:00 0.7 8 Nordeste 19 Nordeste 0.2 -- -- 100
2017-12-16 17:00:00 1.2 6 Nordeste 17 Norte 0.2 -- -- 100
2017-12-16 16:00:00 1.3 5 Nordeste 27 Nordeste 0 -- -- 100
2017-12-16 15:00:00 1.9 8 Nordeste 21 Norte 0.2 -- -- 100
2017-12-16 14:00:00 2.2 6 Nordeste 31 Norte 0 -- -- 100
2017-12-16 13:00:00 1.7 6 Nordeste 18 Nordeste 0 -- -- 100
2017-12-16 12:00:00 1.2 6 Nordeste 20 Nordeste 0.2 -- -- 100
2017-12-16 11:00:00 0.9 7 Nordeste 19 Nordeste 0.2 -- -- 100
2017-12-16 10:00:00 0.2 5 Noroeste 15 Norte 0 -- -- 100
2017-12-16 09:00:00 0.2 5 Nordeste 14 Norte 0 -- -- 100
2017-12-16 08:00:00 0.4 7 Norte 21 Norte 0 -- -- 100
2017-12-16 07:00:00 0.5 8 Noroeste 24 Noroeste 0.2 -- -- 100
2017-12-16 06:00:00 0.7 6 Norte 22 Noroeste 0 -- -- 100
2017-12-16 05:00:00 0.6 12 Noroeste 21 Oeste 0 -- -- 100
2017-12-16 04:00:00 0.6 10 Noroeste 23 Oeste 0.4 -- -- 100
2017-12-16 03:00:00 0.7 9 Oeste 24 Noroeste 0 -- -- 100
2017-12-16 02:00:00 0.4 12 Noroeste 21 Noroeste 0 -- -- 100
2017-12-16 01:00:00 0.9 8 Noroeste 18 Noroeste 0.2 -- -- 100
2017-12-16 00:00:00 0.8 7 Noroeste 25 Norte 0 -- -- 100
2017-12-15 23:00:00 0.9 10 Noroeste 21 Oeste 0.2 -- -- 100
2017-12-15 22:00:00 1.2 12 Noroeste 21 Noroeste 0.2 -- -- 100
2017-12-15 21:00:00 1 12 Oeste 22 Noroeste 0 -- -- 100
2017-12-15 20:00:00 1.1 13 Noroeste 24 Norte 0.2 -- -- 100
2017-12-15 19:00:00 1.3 12 Noroeste 26 Noroeste 0 -- -- 100
2017-12-15 18:00:00 1.3 14 Noroeste 34 Oeste 0.2 -- -- 100
2017-12-15 17:00:00 1.9 15 Oeste 27 Oeste 0.4 -- -- 100
2017-12-15 16:00:00 1.7 13 Oeste 22 Noroeste 0.2 -- -- 100
2017-12-15 15:00:00 1.7 9 Noroeste 23 Noroeste 0 -- -- 100
2017-12-15 14:00:00 1.7 8 Noroeste 23 Noroeste 0 -- -- 100
2017-12-15 13:00:00 1.7 11 Noroeste 23 Norte 0 -- -- 100
2017-12-15 12:00:00 1.6 9 Noroeste 19 Noroeste 0 -- -- 100
2017-12-15 11:00:00 1.3 5 Norte 17 Oeste 0 -- -- 100
2017-12-15 10:00:00 0.8 10 Noroeste 25 Oeste 0 -- -- 100
2017-12-15 09:00:00 1.3 6 Norte 22 Oeste 0.6 -- -- 100
2017-12-15 08:00:00 1.9 8 Noroeste 31 Noroeste 0.6 -- -- 100
2017-12-15 07:00:00 2.8 13 Oeste 29 Oeste 0.6 -- -- 100
2017-12-15 06:00:00 3.1 13 Oeste 32 Oeste 0 -- -- 100
2017-12-15 05:00:00 3.5 15 Oeste 35 Sudoeste 0 -- -- 100
2017-12-15 04:00:00 4 15 Oeste 39 Oeste 0.4 -- -- 100
2017-12-15 03:00:00 4.1 14 Oeste 35 Noroeste 0.4 -- -- 100
2017-12-15 02:00:00 3.8 7 Oeste 33 Oeste 0 -- -- 100
2017-12-15 01:00:00 3.8 14 Oeste 39 Oeste 0 -- -- 100
2017-12-15 00:00:00 4.1 16 Oeste 41 Sudoeste 1 -- -- 100
2017-12-14 23:00:00 3.8 9 Sudoeste 33 Sudoeste 0 -- -- 100
2017-12-14 22:00:00 3.3 15 Oeste 42 Oeste 0 -- -- 100
2017-12-14 21:00:00 3.8 18 Oeste 42 Oeste 0 -- -- 100
2017-12-14 20:00:00 3.9 16 Oeste 42 Oeste 0 -- -- 100
2017-12-14 19:00:00 4.4 18 Oeste 40 Noroeste 0.4 -- -- 100
2017-12-14 18:00:00 5.8 12 Oeste 32 Oeste 0.4 -- -- 100
2017-12-14 17:00:00 6 14 Oeste 32 Oeste 0.6 -- -- 100
2017-12-14 16:00:00 7 16 Oeste 37 Oeste 0.2 -- -- 100
2017-12-14 15:00:00 7.1 13 Oeste 35 Sudoeste 1.8 -- -- 100
2017-12-14 14:00:00 7.4 12 Oeste 26 Sudoeste 1.2 -- -- 100
2017-12-14 13:00:00 7.3 9 Oeste 30 Sudoeste 0.6 -- -- 100
2017-12-14 12:00:00 7.1 13 Oeste 33 Oeste 0.2 -- -- 100
2017-12-14 11:00:00 6.9 16 Oeste 35 Noroeste 0.2 -- -- 100
2017-12-14 10:00:00 6.7 13 Oeste 27 Oeste 1 -- -- 100
2017-12-14 09:00:00 6.3 12 Sudoeste 28 Oeste 1.6 -- -- 100
2017-12-14 08:00:00 6.2 11 Oeste 28 Noroeste 5.2 -- -- 100
2017-12-14 07:00:00 6.5 11 Noroeste 30 Oeste 10.2 -- -- 100
2017-12-14 06:00:00 8 11 Sur 33 Sudoeste 1.6 -- -- 100
2017-12-14 05:00:00 7.4 10 Sudoeste 44 Sudoeste 1.2 -- -- 100
2017-12-14 04:00:00 7.3 15 Sudoeste 46 Oeste 1 -- -- 100
2017-12-14 03:00:00 7.6 20 Oeste 58 Oeste 0.6 -- -- 100
2017-12-14 02:00:00 8.2 18 Oeste 42 Oeste 4.2 -- -- 100
2017-12-14 01:00:00 8.4 12 Sudoeste 40 Sudoeste 2.4 -- -- 100
2017-12-14 00:00:00 8.3 9 Sur 37 Sudoeste 1.4 -- -- 100
2017-12-13 23:00:00 8.1 10 Sur 35 Sudoeste 0.4 -- -- 100
2017-12-13 22:00:00 8.1 14 Sur 46 Sudoeste 0.4 -- -- 100
2017-12-13 21:00:00 7.9 14 Sudeste 49 Oeste 0.2 -- -- 100
2017-12-13 20:00:00 7.7 17 Sur 45 Sur 0.2 -- -- 100
2017-12-13 19:00:00 7.5 17 Sur 50 Sudoeste 0.2 -- -- 100
2017-12-13 18:00:00 7.1 18 Sur 60 Sudoeste 0.2 -- -- 100
2017-12-13 17:00:00 6.7 12 Sur 42 Sudoeste 0.4 -- -- 100
2017-12-13 16:00:00 6.3 12 Sur 43 Oeste 0.2 -- -- 100
2017-12-13 15:00:00 6.1 12 Sudoeste 38 Oeste 0.2 -- -- 100
2017-12-13 14:00:00 5.4 12 Sudoeste 40 Sudoeste 0.2 -- -- 100
2017-12-13 13:00:00 5.4 12 Sudoeste 39 Sudoeste 0.2 -- -- 100
2017-12-13 12:00:00 5.4 15 Sur 40 Sudoeste 0 -- -- 100
2017-12-13 11:00:00 5.4 17 Sudoeste 38 Sudoeste 0 -- -- 100
2017-12-13 10:00:00 5 12 Sudoeste 37 Oeste 0 -- -- 100
2017-12-13 09:00:00 4.8 12 Sudoeste 41 Sudoeste 0 -- -- 100
2017-12-13 08:00:00 5.1 13 Sur 42 Sur 0.2 -- -- 100
2017-12-13 07:00:00 5.6 18 Sudoeste 43 Sur 0 -- -- 100
2017-12-13 06:00:00 5.3 15 Sudoeste 34 Sur 0.2 -- -- 100
2017-12-13 05:00:00 4.9 12 Sudoeste 39 Oeste 0.4 -- -- 100
2017-12-13 04:00:00 4.2 8 Sudoeste 27 Sur 0.6 -- -- 100
2017-12-13 03:00:00 3.7 9 Sur 32 Sudoeste 0.8 -- -- 100
2017-12-13 02:00:00 3.3 9 Sudoeste 32 Sudoeste 1.2 -- -- 100
2017-12-13 01:00:00 2.9 12 Sudoeste 29 Sudoeste 1.6 -- -- 100
2017-12-13 00:00:00 2.5 9 Sudoeste 25 Sudoeste 1.2 -- -- 100
2017-12-12 23:00:00 1.9 7 Sur 22 Sudoeste 1.4 -- -- 100
2017-12-12 22:00:00 1.8 6 Sudoeste 22 Sur 1 -- -- 100
2017-12-12 21:00:00 1.7 6 Sur 24 Sudoeste 0.8 -- -- 100
2017-12-12 20:00:00 1.4 6 Sudoeste 19 Sudoeste 0.6 -- -- 100
2017-12-12 19:00:00 1.3 4 Sudeste 19 Sudoeste 0.6 -- -- 100
2017-12-12 18:00:00 1.4 5 Sudoeste 16 Sudoeste 1 -- -- 100
2017-12-12 17:00:00 1.4 6 Sudoeste 15 Oeste 1.2 -- -- 100
2017-12-12 16:00:00 1.2 5 Sur 15 Sudoeste 1.4 -- -- 100
2017-12-12 15:00:00 1.1 6 Sudoeste 18 Oeste 1.4 -- -- 100
2017-12-12 14:00:00 0.8 8 Oeste 21 Sudoeste 1.6 -- -- 100
2017-12-12 13:00:00 0.6 10 Oeste 19 Oeste 1.4 -- -- 100
2017-12-12 12:00:00 0.5 10 Oeste 18 Oeste 0.8 -- -- 100
2017-12-12 11:00:00 0.3 9 Oeste 19 Oeste 0.2 -- -- 100
2017-12-12 10:00:00 -0.1 12 Oeste 19 Oeste 0 -- -- 100
2017-12-12 09:00:00 -0.2 10 Oeste 20 Oeste 0 -- -- 100
2017-12-12 08:00:00 -0.3 11 Oeste 21 Noroeste 0 -- -- 100
2017-12-12 07:00:00 -0.5 13 Oeste 21 Oeste 0 -- -- 100
2017-12-12 06:00:00 -0.4 12 Oeste 23 Oeste 0 -- -- 100
2017-12-12 05:00:00 -0.5 13 Oeste 21 Sudoeste 0 -- -- 100
2017-12-12 04:00:00 -0.5 11 Oeste 19 Oeste 0 -- -- 100
2017-12-12 03:00:00 -0.7 10 Oeste 19 Oeste 0 -- -- 100
2017-12-12 02:00:00 -0.6 12 Oeste 26 Oeste 0 -- -- 100
2017-12-12 01:00:00 -0.6 16 Oeste 27 Oeste 0 -- -- 100
2017-12-12 00:00:00 -0.7 15 Oeste 29 Oeste 0 -- -- 100
2017-12-11 23:00:00 -0.4 17 Oeste 33 Oeste 0 -- -- 100
2017-12-11 22:00:00 -0.5 15 Oeste 30 Oeste 0 -- -- 100
2017-12-11 21:00:00 -0.6 18 Oeste 35 Oeste 0 -- -- 100
2017-12-11 20:00:00 -0.6 18 Oeste 29 Oeste 0.2 -- -- 100
2017-12-11 19:00:00 -0.5 18 Oeste 35 Oeste 0 -- -- 100
2017-12-11 18:00:00 -0.7 14 Oeste 32 Oeste 0.2 -- -- 100
2017-12-11 17:00:00 -0.5 20 Oeste 33 Oeste 0.6 -- -- 100
2017-12-11 16:00:00 -0.3 9 Noroeste 26 Norte 1 -- -- 100
2017-12-11 15:00:00 0 14 Noroeste 32 Norte 0.8 -- -- 100
2017-12-11 14:00:00 -0.1 11 Noroeste 25 Oeste 0.4 -- -- 100
2017-12-11 13:00:00 -0.2 15 Oeste 27 Oeste 0 -- -- 100
2017-12-11 12:00:00 -0.3 12 Oeste 20 Oeste 0.2 -- -- 100
2017-12-11 11:00:00 -0.2 7 Sudoeste 23 Sudoeste 0 -- -- 100
2017-12-11 10:00:00 -0.5 10 Sudoeste 23 Sudoeste 0 -- -- 100
2017-12-11 09:00:00 -0.5 9 Sudoeste 26 Sur 0 -- -- 100
2017-12-11 08:00:00 -0.4 9 Sudoeste 23 Oeste 0 -- -- 100
2017-12-11 07:00:00 -0.6 8 Oeste 23 Sudoeste 0 -- -- 100
2017-12-11 06:00:00 -0.4 11 Oeste 24 Oeste 0 -- -- 100
2017-12-11 05:00:00 -0.7 12 Oeste 25 Oeste 0 -- -- 100
2017-12-11 04:00:00 -0.3 13 Oeste 30 Oeste 0 -- -- 100
2017-12-11 03:00:00 -0.2 21 Oeste 46 Noroeste 0.8 -- -- 100
2017-12-11 02:00:00 2 15 Oeste 41 Sudoeste 1 -- -- 100
2017-12-11 01:00:00 2.8 11 Sur 35 Sudoeste 1 -- -- 100
2017-12-11 00:00:00 1.7 15 Sudoeste 45 Oeste 4.6 -- -- 100
2017-12-10 23:00:00 2.4 17 Oeste 57 Oeste 5.8 -- -- 100
2017-12-10 22:00:00 3.6 28 Oeste 69 Oeste 7.6 -- -- 100
2017-12-10 21:00:00 8.8 29 Sudoeste 69 Sudoeste 8 -- -- 100
2017-12-10 20:00:00 8.7 15 Sudoeste 75 Sudoeste 14.2 -- -- 100
2017-12-10 19:00:00 8.3 21 Sur 69 Sudoeste 5 -- -- 100
2017-12-10 18:00:00 8.7 29 Sudoeste 85 Sudoeste 4.4 -- -- 100
2017-12-10 17:00:00 8.5 17 Sudoeste 43 Oeste 5.4 -- -- 100
2017-12-10 16:00:00 6.3 10 Sudeste 60 Oeste 7 -- -- 100
2017-12-10 15:00:00 6.1 31 Oeste 65 Sudoeste 25.8 -- -- 100
2017-12-10 14:00:00 9.2 21 Sudoeste 75 Oeste 3.2 -- -- 100
2017-12-10 13:00:00 9.2 26 Sudoeste 66 Sudoeste 3.2 -- -- 100
2017-12-10 12:00:00 9.2 17 Sudoeste 55 Oeste 5.4 -- -- 100
2017-12-10 11:00:00 9.1 21 Sudoeste 58 Sudoeste 6.2 -- -- 100
2017-12-10 10:00:00 9 23 Sudoeste 64 Sudoeste 3.2 -- -- 100
2017-12-10 09:00:00 8.9 21 Sudoeste 64 Sudoeste 2.2 -- -- 100
2017-12-10 08:00:00 8.4 21 Sudoeste 56 Sudoeste 2.2 -- -- 100
2017-12-10 07:00:00 8 21 Sudoeste 59 Sur 0.6 -- -- 100
2017-12-10 06:00:00 7.7 19 Sudoeste 62 Sudoeste 0.4 -- -- 100
2017-12-10 05:00:00 7.2 17 Sudoeste 47 Sudoeste 0.2 -- -- 100
2017-12-10 04:00:00 7.1 15 Sudoeste 42 Sudoeste 0.2 -- -- 100
2017-12-10 03:00:00 7.3 14 Sur 39 Sudoeste 0.2 -- -- 100
2017-12-10 02:00:00 7.2 15 Sudoeste 44 Sudoeste 0.2 -- -- 100
2017-12-10 01:00:00 7.4 13 Sudoeste 39 Sur 0 -- -- 100
2017-12-10 00:00:00 7.4 13 Sur 41 Oeste 0 -- -- 100
2017-12-09 23:00:00 7.5 14 Sur 40 Sudoeste 0 -- -- 100
2017-12-09 22:00:00 7.6 15 Sur 45 Sur 0.2 -- -- 100
2017-12-09 21:00:00 7.8 13 Sur 45 Oeste 0 -- -- 100
2017-12-09 20:00:00 7.9 18 Sudoeste 45 Sudoeste 0.4 -- -- 100
2017-12-09 19:00:00 8.2 14 Sudoeste 54 Sudoeste 1.4 -- -- 100
2017-12-09 18:00:00 8.3 12 Sur 44 Sudoeste 2.4 -- -- 100
2017-12-09 17:00:00 8.3 12 Sur 37 Sudoeste 2 -- -- 100
2017-12-09 16:00:00 8.2 10 Sudoeste 39 Oeste 0.8 -- -- 100
2017-12-09 15:00:00 8.1 12 Sudoeste 39 Sudoeste 0.2 -- -- 100
2017-12-09 14:00:00 8.1 12 Sur 37 Sudoeste 0 -- -- 100
2017-12-09 13:00:00 8 10 Sudoeste 37 Oeste 1.2 -- -- 100
2017-12-09 12:00:00 7.5 9 Sudoeste 30 Sudoeste 1 -- -- 100
2017-12-09 11:00:00 6.9 7 Sudoeste 26 Oeste 1.6 -- -- 100
2017-12-09 10:00:00 6.5 10 Sudoeste 29 Oeste 0.6 -- -- 100
2017-12-09 09:00:00 5.9 12 Sudoeste 26 Sudoeste 0.2 -- -- 100
2017-12-09 08:00:00 5.1 5 Sudoeste 14 Sur 0.2 -- -- 100
2017-12-09 07:00:00 5 4 Sudeste 18 Oeste 0.6 -- -- 100
2017-12-09 06:00:00 5 5 Oeste 13 Sudoeste 0.6 -- -- 100
2017-12-09 05:00:00 5.1 5 Sudoeste 13 Sudoeste 0.2 -- -- 100
2017-12-09 04:00:00 4.7 5 Sudoeste 13 Oeste 0 -- -- 100
2017-12-09 03:00:00 4.7 6 Sudoeste 12 Sudoeste 0.2 -- -- 100
2017-12-09 02:00:00 4.6 7 Sudoeste 12 Sudoeste 0 -- -- 100
2017-12-09 01:00:00 4.8 7 Oeste 10 Oeste 0 -- -- 100
2017-12-09 00:00:00 5.2 6 Oeste 10 Oeste 0 -- -- 100
2017-12-08 23:00:00 5.3 6 Oeste 12 Oeste 0 -- -- 100
2017-12-08 22:00:00 5.4 8 Oeste 13 Oeste 0 -- -- 100
2017-12-08 21:00:00 5.5 3 Noroeste 6 Noroeste 0 -- -- 100
2017-12-08 20:00:00 5.9 3 Noroeste 8 Noroeste 0.2 -- -- 100
2017-12-08 19:00:00 6 4 Noroeste 13 Noroeste 0 -- -- 100
2017-12-08 18:00:00 6 6 Noroeste 14 Oeste 0.4 -- -- 100
2017-12-08 17:00:00 6.7 8 Noroeste 15 Oeste 1 -- -- 100
2017-12-08 16:00:00 7.8 6 Oeste 14 Oeste 0.4 -- -- 100
2017-12-08 15:00:00 7.8 8 Oeste 14 Oeste 0.6 -- -- 100
2017-12-08 14:00:00 8 7 Oeste 16 Oeste 0.6 -- -- 100
2017-12-08 13:00:00 7.9 10 Oeste 18 Oeste 0.6 -- -- 100
2017-12-08 12:00:00 7.8 9 Oeste 22 Oeste 1.2 -- -- 100
2017-12-08 11:00:00 7.4 10 Oeste 20 Oeste 2.4 -- -- 100
2017-12-08 10:00:00 7.3 9 Oeste 21 Oeste 1.2 -- -- 100
2017-12-08 09:00:00 7.4 10 Oeste 21 Sudoeste 1.8 -- -- 100
2017-12-08 08:00:00 7.5 9 Oeste 24 Oeste 1.2 -- -- 100
2017-12-08 07:00:00 7.5 7 Sudoeste 25 Oeste 0.8 -- -- 100
2017-12-08 06:00:00 7.5 9 Oeste 24 Oeste 0.4 -- -- 100
2017-12-08 05:00:00 7.7 11 Oeste 24 Sur 0.6 -- -- 100
2017-12-08 04:00:00 7.7 7 Sudoeste 21 Sur 0.2 -- -- 100
2017-12-08 03:00:00 7.7 6 Sudoeste 19 Sudoeste 0 -- -- 100
2017-12-08 02:00:00 7.5 9 Sudoeste 28 Sudoeste 0.2 -- -- 100
2017-12-08 01:00:00 7.4 8 Sudoeste 27 Sudoeste 0 -- -- 100
2017-12-08 00:00:00 7.4 10 Sudoeste 31 Sudoeste 0 -- -- 100
2017-12-07 23:00:00 7.4 9 Sudoeste 32 Sudoeste 0 -- -- 100
2017-12-07 22:00:00 7.1 10 Sudoeste 34 Oeste 0.2 -- -- 100
2017-12-07 21:00:00 6.5 12 Sudoeste 37 Oeste 2.4 -- -- 100
2017-12-07 20:00:00 7.3 11 Sur 34 Sudoeste 2.4 -- -- 100
2017-12-07 19:00:00 7.7 11 Sur 36 Sudoeste 3.4 -- -- 100
2017-12-07 18:00:00 7.7 7 Sur 32 Sudoeste 2.2 -- -- 100
2017-12-07 17:00:00 7.4 15 Sur 41 Sudoeste 2 -- -- 100
2017-12-07 16:00:00 7.6 8 Sur 32 Sudoeste 1.2 -- -- 100
2017-12-07 15:00:00 7.4 9 Sur 33 Oeste 1.8 -- -- 99
2017-12-07 14:00:00 7 7 Sur 28 Sudoeste 0.6 -- -- 98
2017-12-07 13:00:00 7.2 8 Sudoeste 23 Oeste 0.6 -- -- 96
2017-12-07 12:00:00 7.2 10 Sudoeste 25 Sudoeste 0 -- -- 90
2017-12-07 11:00:00 6.6 5 Sur 20 Sudoeste 0 -- -- 92
2017-12-07 10:00:00 5.9 9 Sudoeste 21 Sudoeste 0 -- -- 95
2017-12-07 09:00:00 5.3 10 Sudoeste 27 Sudoeste 0.2 -- -- 93
2017-12-07 08:00:00 5.4 9 Sudoeste 26 Oeste 0 -- -- 84
2017-12-07 07:00:00 5.2 11 Sur 28 Sur 0 -- -- 67
2017-12-07 06:00:00 5.5 10 Oeste 22 Sudoeste 0 -- -- 48
2017-12-07 05:00:00 5.1 8 Sudoeste 27 Sudoeste 0 -- -- 52
2017-12-07 04:00:00 5.6 9 Sudoeste 25 Sudoeste 0 -- -- 42
2017-12-07 03:00:00 5.7 8 Sudoeste 28 Sudoeste 0 -- -- 38
2017-12-07 02:00:00 5.9 7 Sudoeste 20 Sudoeste 0 -- -- 39
2017-12-07 01:00:00 6.1 7 Sudoeste 20 Oeste 0 -- -- 39
2017-12-07 00:00:00 6.2 8 Sudoeste 22 Sur 0 -- -- 38
2017-12-06 23:00:00 5.7 8 Sudoeste 20 Sudoeste 0 -- -- 43
2017-12-06 22:00:00 5.7 3 Sur 24 Sudoeste 0 -- -- 45
2017-12-06 21:00:00 6 12 Sudoeste 24 Sudoeste 0 -- -- 42
2017-12-06 20:00:00 5.7 8 Sudoeste 22 Sudoeste 0 -- -- 44
2017-12-06 19:00:00 5.9 15 Sudoeste 26 Sudoeste 0 -- -- 41
2017-12-06 18:00:00 5.6 18 Sudoeste 28 Sudoeste 0 -- -- 45
2017-12-06 17:00:00 6.3 7 Sudoeste 18 Sudoeste 0 -- -- 44
2017-12-06 16:00:00 7.5 4 Sur 15 Sur 0 -- -- 47
2017-12-06 15:00:00 7.2 9 Sudoeste 17 Sudoeste 0 -- -- 58
2017-12-06 14:00:00 8 4 Sur 13 Sudoeste 0 -- -- 48
2017-12-06 13:00:00 8.9 5 Sudoeste 22 Sur 0 -- -- 44
2017-12-06 12:00:00 7.8 6 Sur 13 Sur 0 -- -- 42
2017-12-06 11:00:00 5.1 2 Sudeste 16 Sudoeste 0 -- -- 51
2017-12-06 10:00:00 4.5 9 Sudoeste 16 Sur 0 -- -- 50
2017-12-06 09:00:00 3.8 6 Sudoeste 13 Sudoeste 0 -- -- 48
2017-12-06 08:00:00 3.6 3 Sudeste 15 Sudoeste 0 -- -- 49
2017-12-06 07:00:00 3 4 Sudeste 9 Sudeste 0 -- -- 55
2017-12-06 06:00:00 3.8 3 Este 12 Oeste 0 -- -- 52
2017-12-06 05:00:00 3.9 6 Sudoeste 17 Sudoeste 0 -- -- 59
2017-12-06 04:00:00 4.6 12 Sudoeste 17 Sudoeste 0 -- -- 55
2017-12-06 03:00:00 4.1 5 Sur 15 Sudoeste 0 -- -- 59
2017-12-06 02:00:00 4 9 Sudoeste 14 Sudoeste 0 -- -- 63
2017-12-06 01:00:00 3.2 10 Sudoeste 14 Sudoeste 0 -- -- 71
2017-12-06 00:00:00 2.7 6 Sudoeste 10 Sudoeste 0 -- -- 75
2017-12-05 23:00:00 3.8 5 Sudeste 12 Sur 0 -- -- 74
2017-12-05 22:00:00 3.1 8 Sudoeste 14 Sudoeste 0 -- -- 72
2017-12-05 21:00:00 3.1 7 Oeste 13 Sudoeste 0 -- -- 71
2017-12-05 20:00:00 2.4 3 Sur 12 Sudoeste 0 -- -- 82
2017-12-05 19:00:00 2.8 0 Calma 9 Oeste 0 -- -- 84
2017-12-05 18:00:00 4.1 3 Sudeste 8 Oeste 0 -- -- 79
2017-12-05 17:00:00 6.4 3 Sudoeste 14 Sudoeste 0 -- -- 71
2017-12-05 16:00:00 6.9 6 Sudoeste 11 Oeste 0 -- -- 71
2017-12-05 15:00:00 7.5 2 Sudeste 10 Oeste 0 -- -- 67
2017-12-05 14:00:00 7.9 5 Oeste 9 Sudoeste 0 -- -- 66
2017-12-05 13:00:00 7.7 2 Nordeste 6 Sudoeste 0 -- -- 65
2017-12-05 12:00:00 6.6 4 Sudoeste 7 Oeste 0 -- -- 63
2017-12-05 11:00:00 5.3 2 Oeste 6 Sudoeste 0 -- -- 59
2017-12-05 10:00:00 3.6 6 Oeste 8 Oeste 0 -- -- 70
2017-12-05 09:00:00 2.4 2 Sur 9 Sudeste 0 -- -- 74
2017-12-05 08:00:00 2.1 5 Sudeste 12 Sudeste 0 -- -- 77
2017-12-05 07:00:00 1.7 4 Este 16 Sudeste 0 -- -- 80
2017-12-05 06:00:00 1.7 8 Sudeste 16 Sudeste 0 -- -- 82
2017-12-05 05:00:00 2 9 Sudeste 17 Sudeste 0 -- -- 80
2017-12-05 04:00:00 2.6 8 Sudeste 15 Sudeste 0 -- -- 77
2017-12-05 03:00:00 3.7 7 Sudeste 21 Sudeste 0 -- -- 70
2017-12-05 02:00:00 3.6 13 Sudeste 22 Sudeste 0 -- -- 72
2017-12-05 01:00:00 3.5 12 Sudeste 22 Sudeste 0 -- -- 74
2017-12-05 00:00:00 2.4 9 Sudeste 19 Este 0 -- -- 82
2017-12-04 23:00:00 1.5 7 Este 12 Este 0 -- -- 95
2017-12-04 22:00:00 1.3 4 Este 10 Sudeste 0 -- -- 95
2017-12-04 21:00:00 1.9 4 Este 12 Este 0 -- -- 88
2017-12-04 20:00:00 2 3 Este 10 Este 0 -- -- 87
2017-12-04 19:00:00 2.9 4 Este 10 Este 0 -- -- 85
2017-12-04 18:00:00 3.6 2 Nordeste 4 Norte 0 -- -- 82
2017-12-04 17:00:00 6.1 0 Calma 6 Noroeste 0 -- -- 70
2017-12-04 16:00:00 6.6 3 Sur 8 Este 0 -- -- 65
2017-12-04 15:00:00 7 3 Sudeste 12 Sur 0 -- -- 63
2017-12-04 14:00:00 7.1 5 Este 14 Sudeste 0 -- -- 66
2017-12-04 13:00:00 6.6 5 Este 17 Sudeste 0 -- -- 66
2017-12-04 12:00:00 5.5 8 Sudeste 20 Este 0 -- -- 69
2017-12-04 11:00:00 4.1 10 Sudeste 23 Sudeste 0 -- -- 71
2017-12-04 10:00:00 3 7 Sudeste 18 Sudeste 0 -- -- 77
2017-12-04 09:00:00 1.2 11 Sudeste 16 Sudeste 0 -- -- 82
2017-12-04 08:00:00 0 6 Sudeste 12 Sudeste 0 -- -- 88
2017-12-04 07:00:00 -0.8 0 Calma 9 Este 0 -- -- 92
2017-12-04 06:00:00 -0.4 4 Este 10 Este 0 -- -- 95
2017-12-04 05:00:00 -0.3 4 Este 15 Este 0 -- -- 95
2017-12-04 04:00:00 -0.2 5 Este 14 Este 0 -- -- 96
2017-12-04 03:00:00 0.2 6 Este 19 Este 0 -- -- 97
2017-12-04 02:00:00 0.3 7 Este 23 Nordeste 0 -- -- 96
2017-12-04 01:00:00 0.1 8 Este 19 Este 0 -- -- 96
2017-12-04 00:00:00 0.1 8 Este 21 Este 0 -- -- 99
2017-12-03 23:00:00 0.3 6 Este 19 Este 0 -- -- 97
2017-12-03 22:00:00 0.7 8 Este 20 Este 0 -- -- 96
2017-12-03 21:00:00 1.1 8 Este 18 Nordeste 0 -- -- 91
2017-12-03 20:00:00 1.4 6 Nordeste 21 Nordeste 0 -- -- 86
2017-12-03 19:00:00 1.5 9 Nordeste 19 Este 0 -- -- 87
2017-12-03 18:00:00 1.8 7 Nordeste 16 Norte 0 -- -- 86
2017-12-03 17:00:00 2.4 7 Nordeste 18 Nordeste 0 -- -- 85
2017-12-03 16:00:00 2.8 6 Este 24 Nordeste 0 -- -- 84
2017-12-03 15:00:00 2.9 10 Este 28 Nordeste 0 -- -- 82
2017-12-03 14:00:00 3.3 8 Este 26 Nordeste 0 -- -- 83
2017-12-03 13:00:00 2.8 8 Este 26 Nordeste 0 -- -- 88
2017-12-03 12:00:00 2.1 12 Nordeste 29 Nordeste 0.2 -- -- 90
2017-12-03 11:00:00 0.8 9 Este 30 Este 0 -- -- 100
2017-12-03 10:00:00 0.1 12 Nordeste 27 Nordeste 0 -- -- 100
2017-12-03 09:00:00 -0.7 11 Nordeste 27 Nordeste 0 -- -- 100
2017-12-03 08:00:00 -0.8 9 Este 22 Nordeste 0 -- -- 100
2017-12-03 07:00:00 -0.8 9 Este 28 Nordeste 0 -- -- 100
2017-12-03 06:00:00 -0.5 12 Este 24 Este 0 -- -- 100
2017-12-03 05:00:00 -0.6 11 Nordeste 30 Nordeste 0 -- -- 100
2017-12-03 04:00:00 -0.6 11 Este 26 Nordeste 0 -- -- 100
2017-12-03 03:00:00 -0.6 11 Nordeste 27 Nordeste 0 -- -- 100
2017-12-03 02:00:00 -0.3 10 Este 24 Este 0 -- -- 100
2017-12-03 01:00:00 -0.4 9 Nordeste 22 Nordeste 0 -- -- 100
2017-12-03 00:00:00 -0.3 10 Este 28 Este 0 -- -- 100
2017-12-02 23:00:00 -0.6 11 Este 27 Nordeste 0 -- -- 100
2017-12-02 22:00:00 -0.5 10 Nordeste 32 Nordeste 0 -- -- 100
2017-12-02 21:00:00 -0.5 11 Nordeste 28 Nordeste 0 -- -- 100
2017-12-02 20:00:00 -0.5 12 Nordeste 30 Este 0 -- -- 100
2017-12-02 19:00:00 -0.2 9 Nordeste 29 Nordeste 0 -- -- 100
2017-12-02 18:00:00 -0.3 9 Nordeste 28 Nordeste 0.2 -- -- 100
2017-12-02 17:00:00 0.8 7 Nordeste 21 Nordeste 0 -- -- 100
2017-12-02 16:00:00 1 7 Nordeste 19 Norte 0 -- -- 100
2017-12-02 15:00:00 1.3 7 Nordeste 27 Este 0 -- -- 100
2017-12-02 14:00:00 0.9 12 Nordeste 36 Nordeste 0 -- -- 100
2017-12-02 13:00:00 0.7 9 Nordeste 23 Nordeste 0 -- -- 100
2017-12-02 12:00:00 0 8 Nordeste 24 Nordeste 0.4 -- -- 100
2017-12-02 11:00:00 -0.4 9 Nordeste 20 Nordeste 0 -- -- 100
2017-12-02 10:00:00 -0.6 8 Nordeste 18 Nordeste 0 -- -- 100
2017-12-02 09:00:00 -1.1 6 Nordeste 26 Nordeste 0 -- -- 100
2017-12-02 08:00:00 -1.2 10 Nordeste 27 Nordeste 0 -- -- 100
2017-12-02 07:00:00 -1.1 10 Nordeste 23 Nordeste 0 -- -- 100
2017-12-02 06:00:00 -1.2 9 Nordeste 24 Nordeste 0 -- -- 100
2017-12-02 05:00:00 -1.5 9 Nordeste 26 Nordeste 0 -- -- 100
2017-12-02 04:00:00 -1.2 12 Nordeste 22 Nordeste 0 -- -- 100
2017-12-02 03:00:00 -1.6 12 Nordeste 30 Nordeste 0 -- -- 100
2017-12-02 02:00:00 -1.7 9 Nordeste 29 Este 0 -- -- 100
2017-12-02 01:00:00 -1.6 12 Nordeste 27 Nordeste 0 -- -- 100
2017-12-02 00:00:00 -1.4 8 Nordeste 22 Nordeste 0 -- -- 100
2017-12-01 23:00:00 -1.6 9 Nordeste 26 Nordeste 0 -- -- 100
2017-12-01 22:00:00 -1.4 10 Nordeste 31 Nordeste 0 -- -- 100
2017-12-01 21:00:00 -1.5 13 Nordeste 35 Este 0 -- -- 100
2017-12-01 20:00:00 -1.7 11 Nordeste 30 Nordeste 0 -- -- 100
2017-12-01 19:00:00 -1.7 13 Nordeste 36 Nordeste 0 -- -- 100
2017-12-01 18:00:00 -1.3 13 Nordeste 41 Nordeste 0 -- -- 100
2017-12-01 17:00:00 -0.6 15 Nordeste 33 Nordeste 0 -- -- 100
2017-12-01 16:00:00 -0.1 11 Nordeste 32 Nordeste 0.4 -- -- 100
2017-12-01 15:00:00 0.5 10 Nordeste 27 Nordeste 0 -- -- 100
2017-12-01 14:00:00 1.1 9 Nordeste 34 Norte 0 -- -- 100
2017-12-01 13:00:00 1.6 12 Nordeste 33 Norte 0.2 -- -- 100
2017-12-01 12:00:00 1.8 12 Noroeste 40 Oeste 0.6 -- -- 100
2017-12-01 11:00:00 1.7 17 Noroeste 44 Oeste 0.2 -- -- 100
2017-12-01 10:00:00 1.3 19 Noroeste 36 Oeste 0.4 -- -- 100
2017-12-01 09:00:00 1.1 21 Noroeste 37 Oeste 0.4 -- -- 100
2017-12-01 08:00:00 0.9 20 Oeste 38 Oeste 0.2 -- -- 100
2017-12-01 07:00:00 0.6 18 Oeste 30 Oeste 0.4 -- -- 100
2017-12-01 06:00:00 0.3 15 Oeste 28 Oeste 0.4 -- -- 100
2017-12-01 05:00:00 0.2 17 Oeste 26 Noroeste 0 -- -- 100
2017-12-01 04:00:00 -0.1 15 Oeste 29 Noroeste 0 -- -- 100
2017-12-01 03:00:00 -0.2 13 Oeste 27 Oeste 0 -- -- 100
2017-12-01 02:00:00 -0.3 14 Oeste 25 Oeste 0 -- -- 100
2017-12-01 01:00:00 -0.2 15 Oeste 24 Oeste 0 -- -- 100
2017-12-01 00:00:00 -0.2 12 Noroeste 24 Noroeste 0 -- -- 100
2017-11-30 23:00:00 -0.2 11 Oeste 28 Noroeste 0 -- -- 100
2017-11-30 22:00:00 0.1 13 Noroeste 21 Noroeste 0 -- -- 100
2017-11-30 21:00:00 0.2 10 Noroeste 18 Norte 0 -- -- 100
2017-11-30 20:00:00 0.2 5 Noroeste 17 Noroeste 0 -- -- 100
2017-11-30 19:00:00 0.2 8 Noroeste 19 Oeste 0.2 -- -- 100
2017-11-30 18:00:00 0.6 8 Noroeste 17 Noroeste 0 -- -- 100
2017-11-30 17:00:00 1.5 8 Noroeste 15 Noroeste 0 -- -- 99
2017-11-30 16:00:00 1.7 4 Norte 15 Nordeste 0 -- -- 97
2017-11-30 15:00:00 1.4 8 Nordeste 23 Norte 0 -- -- 100
2017-11-30 14:00:00 1.6 7 Nordeste 15 Nordeste 0.2 -- -- 100
2017-11-30 13:00:00 0.7 4 Nordeste 12 Norte 0.4 -- -- 100
2017-11-30 12:00:00 0.2 6 Nordeste 14 Norte 0.6 -- -- 100
2017-11-30 11:00:00 -0.2 5 Nordeste 19 Nordeste 0 -- -- 100
2017-11-30 10:00:00 -0.6 5 Nordeste 14 Norte 0 -- -- 100
2017-11-30 09:00:00 -1.5 5 Nordeste 13 Este 0 -- -- 100
2017-11-30 08:00:00 -1.8 6 Nordeste 13 Nordeste 0 -- -- 100
2017-11-30 07:00:00 -2 6 Nordeste 16 Nordeste 0 -- -- 100
2017-11-30 06:00:00 -2 6 Nordeste 17 Nordeste 0 -- -- 100
2017-11-30 05:00:00 -1.7 4 Este 14 Nordeste 0 -- -- 100
2017-11-30 04:00:00 -1.7 5 Este 15 Nordeste 0 -- -- 100
2017-11-30 03:00:00 -1.8 6 Este 17 Nordeste 0 -- -- 100
2017-11-30 02:00:00 -1.6 8 Nordeste 19 Nordeste 0 -- -- 100
2017-11-30 01:00:00 -1.4 7 Este 19 Este 0 -- -- 100
2017-11-30 00:00:00 -1.3 7 Nordeste 19 Nordeste 0 -- -- 100
2017-11-29 23:00:00 -1.1 9 Nordeste 22 Este 0 -- -- 100
2017-11-29 22:00:00 -0.8 10 Nordeste 24 Nordeste 0 -- -- 100
2017-11-29 21:00:00 -0.8 10 Nordeste 26 Nordeste 0 -- -- 100
2017-11-29 20:00:00 -1 9 Nordeste 29 Este 0 -- -- 100
2017-11-29 19:00:00 -0.8 9 Nordeste 31 Nordeste 0 -- -- 100
2017-11-29 18:00:00 -0.2 10 Nordeste 26 Nordeste 0 -- -- 100
2017-11-29 17:00:00 0.2 10 Nordeste 27 Nordeste 0.8 -- -- 99
2017-11-29 16:00:00 0.4 8 Nordeste 23 Nordeste 0.6 -- -- 100
2017-11-29 15:00:00 0.3 6 Este 17 Este 0.8 -- -- 100
2017-11-29 14:00:00 0.3 4 Nordeste 21 Nordeste 0 -- -- 100
2017-11-29 13:00:00 1.2 6 Nordeste 24 Nordeste 0 -- -- 100
2017-11-29 12:00:00 0.6 9 Nordeste 26 Nordeste 0 -- -- 100
2017-11-29 11:00:00 0.3 6 Nordeste 25 Nordeste 0 -- -- 100
2017-11-29 10:00:00 0.1 10 Nordeste 26 Nordeste 0.2 -- -- 100
2017-11-29 09:00:00 0.5 8 Norte 18 Norte 0 -- -- 100
2017-11-29 08:00:00 0.6 5 Norte 17 Noroeste 0 -- -- 100
2017-11-29 07:00:00 0.7 5 Norte 14 Norte 0 -- -- 100
2017-11-29 06:00:00 0.7 5 Nordeste 22 Nordeste 0 -- -- 99
2017-11-29 05:00:00 0.2 5 Este 16 Nordeste 0 -- -- 98
2017-11-29 04:00:00 0.5 7 Nordeste 17 Nordeste 0 -- -- 99
2017-11-29 03:00:00 1 8 Nordeste 23 Nordeste 0.2 -- -- 100
2017-11-29 02:00:00 1.7 8 Nordeste 24 Nordeste 0 -- -- 100
2017-11-29 01:00:00 2.1 9 Nordeste 23 Nordeste 0 -- -- 100
2017-11-29 00:00:00 2.6 9 Nordeste 21 Norte 0 -- -- 100
2017-11-28 23:00:00 2.7 6 Nordeste 15 Nordeste 0 -- -- 99
2017-11-28 22:00:00 3 5 Norte 15 Noroeste 0 -- -- 99
2017-11-28 21:00:00 3.3 5 Norte 14 Noroeste 0 -- -- 97
2017-11-28 20:00:00 3.6 5 Noroeste 14 Norte 0 -- -- 95
2017-11-28 19:00:00 4 5 Norte 14 Noroeste 0 -- -- 91
2017-11-28 18:00:00 4.2 6 Noroeste 11 Noroeste 0 -- -- 83
2017-11-28 17:00:00 5.2 7 Oeste 22 Oeste 0 -- -- 72
2017-11-28 16:00:00 5.5 12 Oeste 19 Oeste 0 -- -- 69
2017-11-28 15:00:00 6.1 9 Oeste 16 Oeste 0 -- -- 67
2017-11-28 14:00:00 6.8 4 Oeste 11 Sudoeste 0 -- -- 69
2017-11-28 13:00:00 6.4 4 Oeste 10 Sudoeste 0 -- -- 67
2017-11-28 12:00:00 5.3 6 Sudoeste 12 Oeste 0 -- -- 72
2017-11-28 11:00:00 4 6 Sudoeste 12 Oeste 0 -- -- 75
2017-11-28 10:00:00 3.2 5 Sudoeste 14 Sudoeste 0 -- -- 75
2017-11-28 09:00:00 2.5 8 Sudoeste 19 Sudoeste 0 -- -- 75
2017-11-28 08:00:00 2.9 10 Sudoeste 18 Oeste 0 -- -- 70
2017-11-28 07:00:00 2.7 5 Sudoeste 17 Sudoeste 0 -- -- 66
2017-11-28 06:00:00 2.9 9 Sudoeste 17 Sudoeste 0 -- -- 68
2017-11-28 05:00:00 2.6 9 Oeste 14 Sudoeste 0 -- -- 63
2017-11-28 04:00:00 2.8 8 Sudoeste 13 Sudoeste 0 -- -- 60
2017-11-28 03:00:00 3 7 Sudoeste 16 Sudoeste 0 -- -- 68
2017-11-28 02:00:00 2.9 12 Sudoeste 18 Oeste 0 -- -- 69
2017-11-28 01:00:00 3.5 7 Sudoeste 12 Sudoeste 0 -- -- 68
2017-11-28 00:00:00 3.2 8 Sudoeste 15 Sudoeste 0 -- -- 71
2017-11-27 23:00:00 3.5 9 Oeste 19 Oeste 0 -- -- 72
2017-11-27 22:00:00 3.8 12 Sudoeste 19 Sudoeste 0 -- -- 68
2017-11-27 21:00:00 4.4 12 Sudoeste 20 Sudoeste 0 -- -- 62
2017-11-27 20:00:00 4.2 15 Sudoeste 22 Sudoeste 0 -- -- 64
2017-11-27 19:00:00 4.6 13 Sudoeste 18 Oeste 0 -- -- 57
2017-11-27 18:00:00 5.3 12 Sudoeste 16 Sudoeste 0 -- -- 53
2017-11-27 17:00:00 6.9 10 Oeste 19 Sudoeste 0 -- -- 48
2017-11-27 16:00:00 7.7 11 Oeste 16 Oeste 0 -- -- 60
2017-11-27 15:00:00 8.5 8 Oeste 14 Sudoeste 0 -- -- 56
2017-11-27 14:00:00 9.3 2 Este 9 Oeste 0 -- -- 51
2017-11-27 13:00:00 9 3 Sudoeste 10 Oeste 0 -- -- 43
2017-11-27 12:00:00 8.3 4 Oeste 6 Sudoeste 0 -- -- 42
2017-11-27 11:00:00 6.9 4 Sudoeste 8 Sur 0 -- -- 38
2017-11-27 10:00:00 4.1 3 Este 6 Sudeste 0 -- -- 55
2017-11-27 09:00:00 1.9 0 Calma 9 Sudoeste 0 -- -- 60
2017-11-27 08:00:00 2.6 4 Sudoeste 9 Sudeste 0 -- -- 51
2017-11-27 07:00:00 2.9 6 Sur 10 Sur 0 -- -- 52
2017-11-27 06:00:00 2 2 Sudeste 4 Sudeste 0 -- -- 54
2017-11-27 05:00:00 2.1 0 Calma 5 Norte 0 -- -- 62
2017-11-27 04:00:00 3.7 2 Noroeste 13 Sur 0 -- -- 52
2017-11-27 03:00:00 2.7 3 Sudeste 13 Sudeste 0 -- -- 59
2017-11-27 02:00:00 4.4 10 Sudeste 19 Sudeste 0 -- -- 50
2017-11-27 01:00:00 3.3 12 Sudeste 19 Sudeste 0 -- -- 65
2017-11-27 00:00:00 2 6 Sudeste 18 Sudeste 0 -- -- 85
2017-11-26 23:00:00 1.8 10 Sudeste 18 Sudeste 0 -- -- 85
2017-11-26 22:00:00 2.8 8 Sudeste 17 Sur 0 -- -- 77
2017-11-26 21:00:00 3.9 12 Sudeste 21 Sudeste 0 -- -- 71
2017-11-26 20:00:00 2.3 5 Este 15 Sudeste 0 -- -- 89
2017-11-26 19:00:00 2.6 5 Este 10 Sudeste 0 -- -- 87
2017-11-26 18:00:00 3 2 Sudeste 7 Nordeste 0 -- -- 87
2017-11-26 17:00:00 4.1 3 Este 6 Este 0 -- -- 88
2017-11-26 16:00:00 5.5 2 Nordeste 23 Oeste 0 -- -- 81
2017-11-26 15:00:00 5.2 12 Oeste 21 Sudoeste 0 -- -- 85
2017-11-26 14:00:00 6.9 5 Oeste 19 Sudeste 0 -- -- 76
2017-11-26 13:00:00 5.1 6 Sudeste 21 Sudeste 0 -- -- 79
2017-11-26 12:00:00 4.6 10 Sudeste 24 Sudeste 0 -- -- 78
2017-11-26 11:00:00 3 13 Sudeste 26 Sudeste 0.2 -- -- 87
2017-11-26 10:00:00 1.3 12 Sudeste 20 Sudeste 0 -- -- 97
2017-11-26 09:00:00 -0.2 5 Este 12 Sudeste 0 -- -- 100
2017-11-26 08:00:00 -0.4 7 Este 15 Este 0 -- -- 100
2017-11-26 07:00:00 -0.1 7 Sudeste 19 Sudeste 0 -- -- 98
2017-11-26 06:00:00 -0.3 7 Sudeste 14 Este 0 -- -- 100
2017-11-26 05:00:00 -0.5 6 Este 15 Este 0 -- -- 100
2017-11-26 04:00:00 -0.5 5 Este 17 Este 0 -- -- 100
2017-11-26 03:00:00 -0.4 5 Este 16 Nordeste 0 -- -- 100
2017-11-26 02:00:00 -0.2 5 Este 18 Nordeste 0 -- -- 100
2017-11-26 01:00:00 -0.2 6 Este 20 Este 0 -- -- 100
2017-11-26 00:00:00 0 6 Este 20 Este 0 -- -- 100
2017-11-25 23:00:00 0.2 6 Este 19 Este 0 -- -- 100
2017-11-25 22:00:00 0.4 9 Este 26 Este 0 -- -- 100
2017-11-25 21:00:00 0.6 6 Este 26 Nordeste 0 -- -- 100
2017-11-25 20:00:00 0.9 11 Nordeste 27 Este 0 -- -- 100
2017-11-25 19:00:00 1.5 12 Nordeste 31 Nordeste 0 -- -- 100
2017-11-25 18:00:00 2.2 12 Nordeste 31 Este 0 -- -- 99
2017-11-25 17:00:00 3.5 10 Nordeste 29 Nordeste 0 -- -- 97
2017-11-25 16:00:00 4.4 9 Nordeste 31 Este 0 -- -- 96
2017-11-25 15:00:00 4.1 10 Nordeste 32 Nordeste 0 -- -- 98
2017-11-25 14:00:00 4.2 9 Nordeste 31 Nordeste 0 -- -- 100
2017-11-25 13:00:00 4 12 Nordeste 33 Nordeste 0 -- -- 100
2017-11-25 12:00:00 3.8 11 Nordeste 32 Nordeste 0 -- -- 100
2017-11-25 11:00:00 3.8 10 Nordeste 30 Nordeste 0 -- -- 100
2017-11-25 10:00:00 3.2 9 Nordeste 32 Este 0 -- -- 100
2017-11-25 09:00:00 3.3 10 Nordeste 26 Nordeste 0 -- -- 100
2017-11-25 08:00:00 3.6 9 Nordeste 25 Nordeste 0.2 -- -- 100
2017-11-25 07:00:00 3.9 8 Nordeste 24 Nordeste 0 -- -- 100
2017-11-25 06:00:00 4 9 Nordeste 24 Nordeste 0 -- -- 100
2017-11-25 05:00:00 4.1 5 Nordeste 18 Este 0 -- -- 100
2017-11-25 04:00:00 4 6 Nordeste 19 Nordeste 0 -- -- 100
2017-11-25 03:00:00 4.8 8 Nordeste 24 Nordeste 0.2 -- -- 100
2017-11-25 02:00:00 5.5 6 Nordeste 18 Nordeste 0.8 -- -- 100
2017-11-25 01:00:00 5.9 7 Nordeste 22 Norte 1.4 -- -- 100
2017-11-25 00:00:00 6.7 8 Noroeste 21 Noroeste 3.6 -- -- 100
2017-11-24 23:00:00 7.3 6 Norte 15 Noroeste 3.2 -- -- 100
2017-11-24 22:00:00 7.8 10 Noroeste 20 Oeste 2.2 -- -- 100
2017-11-24 21:00:00 8.7 4 Oeste 18 Sudoeste 3.2 -- -- 100
2017-11-24 20:00:00 8.6 5 Oeste 26 Sudoeste 0.8 -- -- 100
2017-11-24 19:00:00 8.4 6 Sur 15 Sur 2 -- -- 100
2017-11-24 18:00:00 8.6 5 Sur 17 Sudoeste 0.8 -- -- 100
2017-11-24 17:00:00 8.7 5 Sudoeste 16 Sudoeste 1.4 -- -- 100
2017-11-24 16:00:00 8.5 5 Sur 14 Sudoeste 2.4 -- -- 100
2017-11-24 15:00:00 8.3 4 Sur 21 Sudoeste 1 -- -- 100
2017-11-24 14:00:00 8.3 9 Sudoeste 23 Oeste 1.2 -- -- 100
2017-11-24 13:00:00 8.8 6 Sudoeste 16 Oeste 1.4 -- -- 100
2017-11-24 12:00:00 8.8 5 Sudoeste 13 Sudoeste 1.6 -- -- 100
2017-11-24 11:00:00 9 3 Sudoeste 15 Sur 0 -- -- 100
2017-11-24 10:00:00 8.4 5 Sur 11 Sudoeste 0 -- -- 100
2017-11-24 09:00:00 7.9 5 Sudoeste 13 Oeste 0.2 -- -- 100
2017-11-24 08:00:00 7.8 6 Oeste 12 Sudoeste 0.4 -- -- 100
2017-11-24 07:00:00 8.5 4 Oeste 19 Sudoeste 0 -- -- 100
2017-11-24 06:00:00 8.3 10 Sur 18 Sur 0.4 -- -- 100
2017-11-24 05:00:00 8.4 10 Sur 26 Sudoeste 0.6 -- -- 99
2017-11-24 04:00:00 8.5 14 Sudoeste 26 Sudoeste 0.6 -- -- 97
2017-11-24 03:00:00 9.2 6 Sur 18 Sur 0.2 -- -- 91
2017-11-24 02:00:00 8.8 9 Sudeste 27 Sur 0.2 -- -- 94
2017-11-24 01:00:00 9.1 13 Sur 33 Sur 0 -- -- 91
2017-11-24 00:00:00 9.2 19 Sur 45 Sur 1 -- -- 90
2017-11-23 23:00:00 9.8 16 Sur 40 Sur 0.4 -- -- 85
2017-11-23 22:00:00 10 18 Sur 41 Sudoeste 0 -- -- 80
2017-11-23 21:00:00 10.6 17 Sur 45 Sudoeste 0 -- -- 76
2017-11-23 20:00:00 10.5 14 Sudoeste 56 Sudoeste 0 -- -- 81
2017-11-23 19:00:00 10.8 21 Sur 50 Sudoeste 0 -- -- 86
2017-11-23 18:00:00 11.5 13 Sur 37 Sur 0 -- -- 91
2017-11-23 17:00:00 12.2 10 Sur 44 Oeste 0 -- -- 84
2017-11-23 16:00:00 13 11 Sudoeste 57 Sudoeste 0 -- -- 77
2017-11-23 15:00:00 13.2 15 Sur 44 Sudoeste 0 -- -- 71
2017-11-23 14:00:00 12.5 17 Sur 42 Sudoeste 0 -- -- 70
2017-11-23 13:00:00 11.6 15 Sur 43 Sudoeste 0 -- -- 75
2017-11-23 12:00:00 10.8 14 Sur 31 Sur 0 -- -- 80
2017-11-23 11:00:00 9.9 14 Sur 34 Sudoeste 0 -- -- 86
2017-11-23 10:00:00 9 15 Sur 38 Sudoeste 0 -- -- 92
2017-11-23 09:00:00 8.7 8 Sudoeste 30 Sudoeste 0 -- -- 95
2017-11-23 08:00:00 8.3 13 Sudoeste 32 Sudoeste 0 -- -- 96
2017-11-23 07:00:00 8.9 13 Sudoeste 42 Sudoeste 0 -- -- 99
2017-11-23 06:00:00 9.3 13 Sudoeste 40 Sudoeste 0.2 -- -- 99
2017-11-23 05:00:00 9 18 Sur 59 Sur 1 -- -- 97
2017-11-23 04:00:00 9.2 28 Sur 59 Sur 0 -- -- 92
2017-11-23 03:00:00 9 27 Sur 59 Sudoeste 0 -- -- 90
2017-11-23 02:00:00 8.9 29 Sur 61 Sudoeste 0 -- -- 88
2017-11-23 01:00:00 9.2 24 Sur 62 Sudoeste 0 -- -- 81
2017-11-23 00:00:00 8.9 26 Sur 60 Sudoeste 0.8 -- -- 89
2017-11-22 23:00:00 8.1 22 Sudoeste 66 Sur 4.8 -- -- 94
2017-11-22 22:00:00 9.1 24 Sur 57 Sudoeste 2.2 -- -- 78
2017-11-22 21:00:00 9.9 19 Sur 55 Sur 0.2 -- -- 64
2017-11-22 20:00:00 11.6 22 Sur 66 Sudoeste 0 -- -- 47
2017-11-22 19:00:00 11.9 23 Sur 55 Sudoeste 0 -- -- 50
2017-11-22 18:00:00 12.5 24 Sur 66 Sur 0 -- -- 47
2017-11-22 17:00:00 13 22 Sur 79 Sudoeste 0 -- -- 46
2017-11-22 16:00:00 13.3 25 Sur 67 Sudoeste 0 -- -- 47
2017-11-22 15:00:00 13.1 21 Sur 47 Sudoeste 0 -- -- 49
2017-11-22 14:00:00 13.1 22 Sur 53 Sudoeste 0 -- -- 48
2017-11-22 13:00:00 13 23 Sur 57 Sur 0 -- -- 47
2017-11-22 12:00:00 13.1 25 Sur 59 Sur 0 -- -- 47
2017-11-22 11:00:00 12.4 23 Sur 64 Sur 0 -- -- 47
2017-11-22 10:00:00 12.3 22 Sur 46 Sur 0 -- -- 43
2017-11-22 09:00:00 11.1 18 Sur 44 Sur 0 -- -- 40
2017-11-22 08:00:00 10.4 21 Sur 41 Sudeste 0 -- -- 42
2017-11-22 07:00:00 9.8 14 Sur 39 Sur 0 -- -- 45
2017-11-22 06:00:00 10.7 14 Sur 34 Sur 0 -- -- 42
2017-11-22 05:00:00 10.2 13 Sur 29 Sur 0 -- -- 43
2017-11-22 04:00:00 10.3 14 Sur 32 Sur 0 -- -- 44
2017-11-22 03:00:00 11 21 Sur 40 Sudeste 0 -- -- 43
2017-11-22 02:00:00 11.1 17 Sur 39 Sur 0 -- -- 41
2017-11-22 01:00:00 11.8 24 Sur 43 Sur 0 -- -- 39
2017-11-22 00:00:00 11 17 Sur 30 Sur 0 -- -- 40
2017-11-21 23:00:00 10.7 13 Sur 28 Sur 0 -- -- 39
2017-11-21 22:00:00 10.8 12 Sur 22 Sudeste 0 -- -- 34
2017-11-21 21:00:00 10.7 11 Sur 20 Sur 0 -- -- 31
2017-11-21 20:00:00 10.7 10 Sur 24 Sudeste 0 -- -- 33
2017-11-21 19:00:00 11.1 11 Sudeste 21 Sudeste 0 -- -- 32
2017-11-21 18:00:00 12.1 13 Sur 21 Sur 0 -- -- 32
2017-11-21 17:00:00 12.9 9 Sudeste 16 Sudeste 0 -- -- 35
2017-11-21 16:00:00 14.2 6 Sudeste 15 Sur 0 -- -- 32
2017-11-21 15:00:00 15 4 Sudeste 15 Sur 0 -- -- 31
2017-11-21 14:00:00 14.9 4 Sudeste 19 Sur 0 -- -- 34
2017-11-21 13:00:00 14.7 6 Sudoeste 17 Sudoeste 0 -- -- 34
2017-11-21 12:00:00 14.1 4 Sudeste 16 Sur 0 -- -- 38
2017-11-21 11:00:00 12 4 Sur 11 Sudeste 0 -- -- 40
2017-11-21 10:00:00 11.1 3 Sudoeste 14 Sudeste 0 -- -- 35
2017-11-21 09:00:00 9.8 7 Sudeste 13 Sudeste 0 -- -- 36
2017-11-21 08:00:00 9.2 6 Sudeste 13 Sudeste 0 -- -- 35
2017-11-21 07:00:00 10 6 Sur 17 Sur 0 -- -- 34
2017-11-21 06:00:00 10 4 Sudeste 13 Sudoeste 0 -- -- 33
2017-11-21 05:00:00 10.1 8 Sudeste 20 Sur 0 -- -- 35
2017-11-21 04:00:00 10.4 11 Sur 20 Sur 0 -- -- 37
2017-11-21 03:00:00 10.9 13 Sur 21 Sudoeste 0 -- -- 37
2017-11-21 02:00:00 10.4 8 Sur 19 Sur 0 -- -- 37
2017-11-21 01:00:00 9.9 6 Sudeste 17 Sur 0 -- -- 38
2017-11-21 00:00:00 9.6 5 Este 14 Sudoeste 0 -- -- 35
2017-11-20 23:00:00 9.8 7 Sudoeste 15 Sudoeste 0 -- -- 34
2017-11-20 22:00:00 9.7 9 Sudoeste 14 Sudoeste 0 -- -- 47
2017-11-20 21:00:00 9.6 4 Sudoeste 11 Sudoeste 0 -- -- 44
2017-11-20 20:00:00 10.4 9 Sudoeste 19 Sudoeste 0 -- -- 41
2017-11-20 19:00:00 10.7 11 Sudoeste 24 Oeste 0 -- -- 36
2017-11-20 18:00:00 11.4 14 Oeste 20 Sudoeste 0 -- -- 35
2017-11-20 17:00:00 13.2 9 Sudoeste 16 Sudoeste 0 -- -- 26
2017-11-20 16:00:00 14.3 7 Sudoeste 14 Sudoeste 0 -- -- 41
2017-11-20 15:00:00 15.7 0 Calma 10 Sur 0 -- -- 36
2017-11-20 14:00:00 16.3 5 Oeste 12 Oeste 0 -- -- 29
2017-11-20 13:00:00 15.7 4 Oeste 12 Sur 0 -- -- 30
2017-11-20 12:00:00 15.4 4 Sudoeste 11 Sudoeste 0 -- -- 24
2017-11-20 11:00:00 13 4 Sur 12 Sur 0 -- -- 24
2017-11-20 10:00:00 11.7 4 Sudeste 9 Sudeste 0 -- -- 27
2017-11-20 09:00:00 10.5 2 Este 11 Sur 0 -- -- 32
2017-11-20 08:00:00 9.4 4 Sudoeste 9 Sudoeste 0 -- -- 39
2017-11-20 07:00:00 8.6 4 Sudeste 6 Sur 0 -- -- 45
2017-11-20 06:00:00 7.9 0 Calma 7 Sur 0 -- -- 45
2017-11-20 05:00:00 8.7 0 Calma 8 Sur 0 -- -- 43
2017-11-20 04:00:00 10.2 6 Sur 9 Sudeste 0 -- -- 40
2017-11-20 03:00:00 9.8 4 Sudoeste 10 Sudoeste 0 -- -- 36
2017-11-20 02:00:00 9.3 8 Sudoeste 10 Sudoeste 0 -- -- 52
2017-11-20 01:00:00 8.9 6 Sudoeste 8 Sudoeste 0 -- -- 53
2017-11-20 00:00:00 9.5 8 Sudoeste 12 Sudoeste 0 -- -- 55
2017-11-19 23:00:00 10.3 9 Sudoeste 12 Sudoeste 0 -- -- 40
2017-11-19 22:00:00 10.5 9 Sudoeste 10 Sudoeste 0 -- -- 41
2017-11-19 21:00:00 9.2 6 Sudoeste 8 Sudoeste 0 -- -- 54
2017-11-19 20:00:00 8.9 2 Sudoeste 8 Sudeste 0 -- -- 58
2017-11-19 19:00:00 9.5 4 Sudeste 8 Sudeste 0 -- -- 57
2017-11-19 18:00:00 10.6 2 Norte 10 Sudoeste 0 -- -- 50
2017-11-19 17:00:00 13.1 8 Sudoeste 15 Sudoeste 0 -- -- 53
2017-11-19 16:00:00 14.4 9 Oeste 12 Oeste 0 -- -- 54
2017-11-19 15:00:00 15 2 Este 5 Norte 0 -- -- 46
2017-11-19 14:00:00 15.9 2 Este 6 Este 0 -- -- 42
2017-11-19 13:00:00 15 2 Este 8 Este 0 -- -- 41
2017-11-19 12:00:00 14.9 3 Este 10 Este 0 -- -- 43
2017-11-19 11:00:00 12.3 3 Este 11 Sudeste 0 -- -- 52
2017-11-19 10:00:00 10.2 5 Este 14 Sudeste 0 -- -- 51
2017-11-19 09:00:00 8.1 2 Este 8 Sudeste 0 -- -- 60
2017-11-19 08:00:00 8 4 Sudeste 8 Sudeste 0 -- -- 62
2017-11-19 07:00:00 7.4 3 Sudoeste 9 Sudoeste 0 -- -- 63
2017-11-19 06:00:00 8 9 Sudoeste 11 Sudoeste 0 -- -- 61
2017-11-19 05:00:00 8.2 6 Oeste 11 Oeste 0 -- -- 64
2017-11-19 04:00:00 8.1 6 Oeste 8 Oeste 0 -- -- 67
2017-11-19 03:00:00 8.6 4 Oeste 6 Oeste 0 -- -- 65
2017-11-19 02:00:00 8.6 5 Oeste 8 Sur 0 -- -- 57
2017-11-19 01:00:00 10.5 7 Sur 12 Sudeste 0 -- -- 48
2017-11-19 00:00:00 10.5 5 Sur 11 Sudeste 0 -- -- 56
2017-11-18 23:00:00 10.4 6 Sur 8 Sur 0 -- -- 55
2017-11-18 22:00:00 9 2 Sur 9 Sudeste 0 -- -- 59
2017-11-18 21:00:00 8 4 Este 10 Sudeste 0 -- -- 68
2017-11-18 20:00:00 7.4 4 Este 9 Sudeste 0 -- -- 79
2017-11-18 19:00:00 8.1 3 Este 8 Este 0 -- -- 80
2017-11-18 18:00:00 9.9 2 Este 5 Este 0 -- -- 71
2017-11-18 17:00:00 12.6 3 Noroeste 9 Noroeste 0 -- -- 64
2017-11-18 16:00:00 13.1 4 Noroeste 10 Oeste 0 -- -- 62
2017-11-18 15:00:00 14.6 2 Este 5 Este 0 -- -- 47
2017-11-18 14:00:00 15.6 3 Este 8 Este 0 -- -- 43
2017-11-18 13:00:00 15.9 4 Este 8 Este 0 -- -- 41
2017-11-18 12:00:00 15 4 Este 9 Sudeste 0 -- -- 46
2017-11-18 11:00:00 12.9 5 Sudeste 13 Sudeste 0 -- -- 48
2017-11-18 10:00:00 10.8 4 Este 14 Sudeste 0 -- -- 57
2017-11-18 09:00:00 10.2 7 Sudeste 16 Sudeste 0 -- -- 51
2017-11-18 08:00:00 8.6 9 Sudeste 16 Sudeste 0 -- -- 56
2017-11-18 07:00:00 8.6 11 Sudeste 18 Sudeste 0 -- -- 57
2017-11-18 06:00:00 9.7 13 Sudeste 24 Sudeste 0 -- -- 52
2017-11-18 05:00:00 10.3 15 Sudeste 23 Sudeste 0 -- -- 50
2017-11-18 04:00:00 10.8 15 Sudeste 25 Sudeste 0 -- -- 49
2017-11-18 03:00:00 10.3 14 Sudeste 22 Sudeste 0 -- -- 51
2017-11-18 02:00:00 8 9 Sudeste 17 Sudeste 0 -- -- 68
2017-11-18 01:00:00 9.1 11 Sudeste 16 Sudeste 0 -- -- 59
2017-11-18 00:00:00 9.5 8 Sudeste 13 Sudeste 0 -- -- 58
2017-11-17 23:00:00 7.2 4 Este 13 Sudeste 0 -- -- 67
2017-11-17 22:00:00 6.2 5 Este 9 Este 0 -- -- 97
2017-11-17 21:00:00 6.9 4 Este 16 Nordeste 0 -- -- 95
2017-11-17 20:00:00 7.9 4 Este 12 Este 0 -- -- 92
2017-11-17 19:00:00 8.6 3 Este 11 Este 0 -- -- 74
2017-11-17 18:00:00 9.1 4 Este 11 Este 0 -- -- 77
2017-11-17 17:00:00 10.8 4 Este 7 Norte 0 -- -- 68
2017-11-17 16:00:00 13.1 3 Norte 8 Oeste 0 -- -- 64
2017-11-17 15:00:00 13.8 4 Noroeste 7 Noroeste 0 -- -- 49
2017-11-17 14:00:00 15.5 2 Norte 5 Oeste 0 -- -- 51
2017-11-17 13:00:00 15.8 3 Oeste 7 Este 0 -- -- 52
2017-11-17 12:00:00 15.5 4 Este 7 Este 0 -- -- 44
2017-11-17 11:00:00 12.7 3 Este 5 Este 0 -- -- 52
2017-11-17 10:00:00 10.7 2 Sur 4 Sur 0 -- -- 56
2017-11-17 09:00:00 8.6 0 Calma 6 Sur 0 -- -- 57
2017-11-17 08:00:00 8.6 2 Sudoeste 4 Sur 0 -- -- 55
2017-11-17 07:00:00 9.2 0 Calma 3 Sur 0 -- -- 51
2017-11-17 06:00:00 8.8 4 Sur 9 Sur 0 -- -- 58
2017-11-17 05:00:00 8.1 3 Sur 8 Sudeste 0 -- -- 60
2017-11-17 04:00:00 8.3 3 Sur 5 Sur 0 -- -- 59
2017-11-17 03:00:00 8.6 2 Sudeste 6 Sudoeste 0 -- -- 60
2017-11-17 02:00:00 8.7 3 Sudoeste 5 Sur 0 -- -- 52
2017-11-17 01:00:00 8.8 0 Calma 8 Sudeste 0 -- -- 58
2017-11-17 00:00:00 9.4 5 Sudeste 10 Sudeste 0 -- -- 59